User: anonymous   Login
Location: Unspecified
(0.0000°N, 0.0000°E)
Time: 19:23:49
(UTC+00:00)
Language:

CUTE-I - Orbit

View from above orbital plane
View from above orbital plane
View from above satellite
View from above satellite

Ground track
Ground track

The orbit data is extracted from the following two-line orbital elements,

1 27844U 03031E   18139.95603160 +.00000046 +00000-0 +40618-4 0  9997
2 27844 098.6871 149.0284 0011062 093.3647 266.8796 14.22112776772144
Epoch (UTC): 19 May 2018 22:56:41
Eccentricity: 0.0011062
inclination: 98.6871°
perigee height: 810 km
apogee height: 826 km
right ascension of ascending node: 149.0284°
argument of perigee: 93.3647°
revolutions per day: 14.22112776
mean anomaly at epoch: 266.8796°
orbit number at epoch: 77214

The dashed part of the orbit path shows where the satellite is in the earth's shadow,  

DLR